[[{"header":{"parameterUnit":"m.s-1","parameterCategory":1,"la1":30.2991,"la2":30.254,"lo1":-89.0895,"lo2":-89.0444,"dy":0.0017,"dx":0.0017,"nx":28,"ny":28,"refTime":"2024-09-02T21:00:00:Z","depth":0,"parameterNumber":2,"parameterNumberName":"U-component_of_WINDS"},"data":[0,0,0,0,0,0,0,0,0,0,0,0,0,0,0,0,0,0,0,0,0,0,0,0,0,0,0,0,0,0,0,0,0,0,0,0,0,0,0,0,0,0,0,0,0,0,0,0,0,0,0,0,0,0,0,0,0,0,-4.4913,-4.4914,0,-4.5055,-4.5056,-4.5058,-4.496,-4.4956,-4.4951,-4.4947,-4.5103,-4.5111,-4.512,0,0,0,0,0,0,0,0,0,0,0,0,0,-4.4565,-4.4572,-4.4912,-4.4914,-4.4916,-4.5054,-4.5056,-4.5058,-4.4961,-4.4956,-4.495,-4.4945,-4.5101,-4.511,-4.512,0,0,0,0,0,0,0,0,0,0,0,0,0,-4.4713,-4.4574,-4.4912,-4.4884,-4.4883,-4.5054,-4.5057,-4.5059,-4.4962,-4.4956,-4.4949,-4.4943,-4.5097,-4.5109,-4.5122,-4.5332,0,0,-4.516,-4.5165,0,0,0,0,0,0,0,0,-4.4705,-4.4726,-4.4886,-4.4886,-4.4885,-4.4983,-4.4991,-4.5151,-4.4964,-4.4933,-4.4947,-4.4939,-4.5069,-4.5084,-4.5125,-4.5339,-4.5346,-4.5161,-4.5168,-4.5174,-4.5177,0,0,0,0,0,0,0,-4.4694,-4.4719,-4.4969,-4.4889,-4.4888,-4.4867,-4.4881,-4.5021,-4.5037,-4.4935,-4.4928,-4.4946,-4.5068,-4.5113,-4.5128,-4.5348,-4.516,-4.5172,-4.5179,-4.5184,-4.574,-4.5747,0,0,0,0,0,0,-4.4685,-4.4711,-4.4964,-4.4973,-4.4776,-4.4879,-4.4894,-4.4958,-4.5035,-4.504,-4.4951,-4.494,-4.5096,-4.5114,-4.5133,-4.5383,-4.5174,-4.5185,-4.5192,-4.5733,-4.5742,-4.575,0,0,0,0,0,0,-4.4678,-4.4709,-4.4959,-4.484,-4.487,-4.4891,-4.4965,-4.4965,-4.501,-4.5047,-4.505,-4.4994,-4.5091,-4.5116,-4.5282,-4.5387,-4.5191,-4.5202,-4.5724,-4.5736,-4.5746,-4.5885,0,0,0,0,0,0,-4.4669,-4.4707,-4.4785,-4.4843,-4.4877,-4.5103,-4.4971,-4.4972,-4.5031,-4.5018,-4.5089,-4.5094,-4.5088,-4.5264,-4.5294,-4.5401,-4.5212,-4.5715,-4.573,-4.5742,-4.5871,-4.5899,-4.5923,0,0,0,0,0,-4.4657,-4.4821,-4.479,-4.4821,-4.4975,-4.5109,-4.5129,-4.5116,-4.5039,-4.5119,-4.5143,-4.5092,-4.5371,-4.5282,-4.5315,-4.5427,-4.5709,-4.5725,-4.5741,-4.5859,-4.5894,-4.5923,0,0,0,0,0,0,-4.478,-4.4828,-4.4794,-4.4981,-4.5041,-4.5092,-4.5193,-4.5153,-4.5239,-4.5224,-4.5206,-4.5223,-4.5397,-4.5429,-4.5329,-4.5634,-4.5528,-4.5552,-4.5606,-4.5639,-4.5665,-4.5654,-4.5222,0,0,0,0,0,-4.4827,-4.493,-4.4968,-4.513,-4.5161,-4.5172,-4.523,-4.5214,-4.5277,-4.5303,-4.5339,-4.5405,-4.5507,-4.5575,-4.5671,-4.5875,-4.5889,-4.5969,-4.5995,-4.6016,-4.6037,-4.6146,-4.6182,-4.5804,-4.5804,-4.5803,0,0,-4.493,-4.4969,-4.5035,-4.5156,-4.52,-4.5308,-4.5194,-4.5314,-4.5395,-4.5323,-4.548,-4.5509,-4.5582,-4.5767,-4.5851,-4.5799,-4.6144,-4.6037,-4.6054,-4.6063,-4.6167,-4.6203,-4.6234,-4.5815,-4.5813,-4.5811,0,0,-4.517,-4.521,-4.5348,-4.5394,-4.5462,-4.5467,-4.5501,-4.5558,-4.5573,-4.573,-4.5677,-4.5775,-4.5952,-4.6004,-4.6055,-4.6314,-4.627,-4.6346,-4.6483,-4.659,-4.662,-4.6646,-4.6738,-4.6771,-4.6367,-4.6367,-4.6368,0,-4.5289,-4.5447,-4.5425,-4.5548,-4.5603,-4.5538,-4.5679,-4.5726,-4.5824,-4.5864,-4.5804,-4.6022,-4.6067,-4.6263,-4.6326,-4.6369,-4.6408,-4.6338,-4.6616,-4.6643,-4.6667,-4.6754,-4.6789,-4.6376,-4.6375,-4.6374,-4.6373,0,-4.5589,-4.57,-4.5804,-4.5895,-4.5962,-4.6094,-4.6094,-4.6165,-4.6143,-4.6155,-4.6317,-4.6367,-4.6472,-4.6517,-4.6499,-4.6712,-4.6677,-4.6618,-4.6511,-4.6712,-4.6794,-4.6827,-4.6389,-4.6385,-4.6383,-4.6381,0,0,-4.5912,-4.5987,-4.6026,-4.6065,-4.6134,-4.6221,-4.635,-4.6449,-4.6509,-4.6579,-4.6688,-4.6838,-4.6782,-4.6839,-4.6826,-4.692,-4.7121,-4.6848,-4.685,-4.6897,-4.7357,-4.7401,-4.744,-4.7092,-4.7098,-4.7103,-4.7351,0,-4.6155,-4.6376,-4.636,-4.6569,-4.6671,-4.6611,-4.6723,-4.678,-4.6795,-4.6886,-4.6904,-4.701,-4.6929,-4.6963,-4.7053,-4.7077,-4.7213,-4.7059,-4.7194,-4.7199,-4.7177,-4.7483,-4.753,-4.7761,-4.7383,-4.7388,-4.7392,0,-4.6469,-4.6544,-4.6763,-4.6814,-4.6857,-4.6958,-4.7046,-4.7133,-4.7196,-4.7201,-4.7263,-4.7234,-4.7367,-4.7257,-4.744,-4.7336,-4.739,-4.7411,-4.7419,-4.7431,-4.7307,-4.7502,-4.7835,-4.7869,-4.7442,-4.7438,-4.7435,0,-4.668,-4.6837,-4.6988,-4.7024,-4.7089,-4.7161,-4.7192,-4.7248,-4.7308,-4.7386,-4.7425,-4.7519,-4.7571,-4.7646,-4.7644,-4.7564,-4.783,-4.772,-4.7839,-4.7839,-4.7897,-4.7893,-4.8242,-4.7934,-4.7934,-4.7933,-4.7932,0,-4.6953,-4.7089,-4.7083,-4.7176,-4.7327,-4.7308,-4.7459,-4.7482,-4.7532,-4.763,-4.7586,-4.7679,-4.7671,-4.7766,-4.7766,-4.7917,-4.7942,-4.795,-4.7949,-4.7954,-4.7953,-4.7989,-4.7973,-4.7942,-4.794,-4.7938,-4.7937,0,-4.7215,-4.7216,-4.7376,-4.7423,-4.7438,-4.7547,-4.7589,-4.7678,-4.7688,-4.7813,-4.7841,-4.7859,-4.7969,-4.7974,-4.8102,-4.8101,-4.8285,-4.8266,-4.8262,-4.8259,-4.8377,-4.8365,-4.876,-4.8811,-4.8471,-4.8474,-4.8477,0,-4.7388,-4.7491,-4.7548,-4.7608,-4.7642,-4.7741,-4.78,-4.7786,-4.785,-4.7929,-4.8009,-4.8113,-4.8195,-4.8374,-4.84,-4.8497,-4.848,-4.8612,-4.8494,-4.8496,-4.8481,-4.8474,-4.8484,-4.8635,-4.8638,-4.8641,-4.8644,0,-4.7696,-4.7691,-4.7776,-4.7862,-4.7934,-4.8002,-4.8065,-4.8118,-4.8112,-4.8187,-4.8295,-4.8359,-4.8487,-4.8592,-4.8686,-4.8721,-4.8683,-4.868,-4.8713,-4.8719,-4.8712,-4.8716,-4.8324,-4.8671,-4.8669,-4.8667,-4.8665,-4.8664,-4.7918,-4.8006,-4.8058,-4.8155,-4.82,-4.826,-4.8344,-4.8364,-4.8454,-4.8554,-4.8541,-4.8663,-4.8723,-4.8845,-4.8887,-4.8984,-4.8939,-4.8986,-4.8998,-4.901,-4.9021,-4.8697,-4.9001,-4.9,-4.9,-4.8999,-4.8999,0,-4.8222,-4.8252,-4.8341,-4.8429,-4.8505,-4.8458,-4.8526,-4.8594,-4.87,-4.8757,-4.8838,-4.8964,-4.9064,-4.9098,-4.9196,-4.9267,-4.9252,-4.9293,-4.9288,-4.9296,-4.9057,-4.9018,-4.9304,-4.9304,-4.9304,-4.9304,-4.9304,-4.9303,-4.8389,-4.8534,-4.8535,-4.8703,-4.8733,-4.8848,-4.889,-4.8946,-4.8991,-4.9131,-4.9213,-4.9233,-4.9282,-4.9383,-4.9474,-4.9481,-4.952,-4.9568,-4.9569,-4.9344,-4.9313,-4.9284,-4.9248,-4.9577,-4.9577,-4.98,-4.9802,-4.9804]},{"header":{"parameterUnit":"m.s-1","parameterCategory":1,"la1":30.2991,"la2":30.254,"lo1":-89.0895,"lo2":-89.0444,"dy":0.0017,"dx":0.0017,"nx":28,"ny":28,"refTime":"2024-09-02T21:00:00:Z","depth":0,"parameterNumber":3,"parameterNumberName":"V-component_of_WINDS"},"data":[0,0,0,0,0,0,0,0,0,0,0,0,0,0,0,0,0,0,0,0,0,0,0,0,0,0,0,0,0,0,0,0,0,0,0,0,0,0,0,0,0,0,0,0,0,0,0,0,0,0,0,0,0,0,0,0,0,0,-0.5833,-0.5832,0,-0.5734,-0.5733,-0.5732,-0.5718,-0.5719,-0.572,-0.5721,-0.5618,-0.5614,-0.5611,0,0,0,0,0,0,0,0,0,0,0,0,0,-0.6008,-0.6005,-0.5833,-0.5832,-0.5831,-0.5734,-0.5733,-0.5731,-0.5718,-0.5719,-0.572,-0.5721,-0.5619,-0.5615,-0.5611,0,0,0,0,0,0,0,0,0,0,0,0,0,-0.5923,-0.6004,-0.5833,-0.5812,-0.5809,-0.5734,-0.5733,-0.5731,-0.5718,-0.5719,-0.5721,-0.5722,-0.5621,-0.5615,-0.561,-0.5548,0,0,-0.5593,-0.5591,0,0,0,0,0,0,0,0,-0.5928,-0.5916,-0.5817,-0.5814,-0.581,-0.574,-0.5757,-0.567,-0.5717,-0.5752,-0.5721,-0.5723,-0.5657,-0.5649,-0.5627,-0.5544,-0.5539,-0.5593,-0.559,-0.5587,-0.5586,0,0,0,0,0,0,0,-0.5934,-0.5921,-0.5794,-0.5815,-0.5811,-0.5807,-0.5796,-0.574,-0.5698,-0.575,-0.5748,-0.5737,-0.5656,-0.5632,-0.5625,-0.5538,-0.5593,-0.5588,-0.5585,-0.5583,-0.5397,-0.5395,0,0,0,0,0,0,-0.5944,-0.5926,-0.5797,-0.5791,-0.5874,-0.5803,-0.5791,-0.5761,-0.5699,-0.5691,-0.5736,-0.5737,-0.5641,-0.5631,-0.5621,-0.5544,-0.5587,-0.5582,-0.5579,-0.5398,-0.5396,-0.5395,0,0,0,0,0,0,-0.5947,-0.5932,-0.5801,-0.5858,-0.5841,-0.5798,-0.5765,-0.5758,-0.5735,-0.5688,-0.5681,-0.572,-0.5642,-0.5629,-0.5566,-0.554,-0.558,-0.5575,-0.54,-0.5398,-0.5395,-0.539,0,0,0,0,0,0,-0.5953,-0.5934,-0.5911,-0.5857,-0.5838,-0.5749,-0.5763,-0.5755,-0.5726,-0.5726,-0.5671,-0.5664,-0.5642,-0.5574,-0.5561,-0.5533,-0.5571,-0.5403,-0.5399,-0.5396,-0.5392,-0.5387,-0.5383,0,0,0,0,0,-0.5959,-0.5913,-0.591,-0.5894,-0.5808,-0.5747,-0.5736,-0.5712,-0.5724,-0.57,-0.5669,-0.5665,-0.5545,-0.5568,-0.5553,-0.5523,-0.5404,-0.54,-0.5397,-0.5394,-0.5388,-0.5383,0,0,0,0,0,0,-0.5964,-0.5906,-0.5901,-0.5837,-0.5797,-0.5745,-0.5714,-0.5707,-0.5663,-0.5665,-0.5637,-0.5624,-0.5563,-0.5537,-0.5564,-0.546,-0.5476,-0.5469,-0.5479,-0.5473,-0.5469,-0.5476,-0.5566,0,0,0,0,0,-0.5958,-0.5914,-0.5865,-0.5813,-0.5793,-0.5757,-0.573,-0.5715,-0.5672,-0.5655,-0.562,-0.5579,-0.5531,-0.5501,-0.5455,-0.5388,-0.5375,-0.536,-0.5356,-0.5352,-0.5346,-0.5308,-0.53,-0.5382,-0.5382,-0.5382,0,0,-0.5945,-0.5907,-0.5881,-0.5813,-0.5781,-0.5735,-0.5743,-0.5695,-0.566,-0.5648,-0.5586,-0.5559,-0.5511,-0.5446,-0.5415,-0.5422,-0.5321,-0.5347,-0.5345,-0.5341,-0.5303,-0.5295,-0.5288,-0.538,-0.538,-0.538,0,0,-0.5897,-0.5865,-0.5817,-0.5784,-0.5734,-0.571,-0.5699,-0.5647,-0.5629,-0.5567,-0.5556,-0.5514,-0.5434,-0.5399,-0.5371,-0.5308,-0.5302,-0.5294,-0.5271,-0.5233,-0.5227,-0.5221,-0.5197,-0.5189,-0.5288,-0.5288,-0.5288,0,-0.5886,-0.5817,-0.5793,-0.5745,-0.5714,-0.5701,-0.5652,-0.5621,-0.5559,-0.5538,-0.5546,-0.5444,-0.541,-0.5336,-0.5321,-0.5299,-0.5284,-0.53,-0.523,-0.5224,-0.5218,-0.5195,-0.5186,-0.5288,-0.5288,-0.5288,-0.5288,0,-0.5806,-0.5759,-0.5726,-0.5666,-0.5632,-0.5584,-0.5551,-0.552,-0.5507,-0.5482,-0.5418,-0.5377,-0.5322,-0.5303,-0.5291,-0.5227,-0.5232,-0.5236,-0.5251,-0.521,-0.5188,-0.5179,-0.5287,-0.5287,-0.5287,-0.5287,0,0,-0.576,-0.5686,-0.5675,-0.5647,-0.559,-0.5553,-0.5503,-0.5449,-0.5422,-0.5379,-0.5335,-0.5267,-0.5269,-0.5237,-0.522,-0.5188,-0.5139,-0.5195,-0.5193,-0.5185,-0.5064,-0.5061,-0.5052,-0.5135,-0.5133,-0.5131,-0.5068,0,-0.5705,-0.5616,-0.5592,-0.5517,-0.5471,-0.5457,-0.5413,-0.5374,-0.5348,-0.5305,-0.5277,-0.5229,-0.5236,-0.5216,-0.5183,-0.5152,-0.5114,-0.5156,-0.5093,-0.5091,-0.5105,-0.504,-0.5038,-0.498,-0.5059,-0.5058,-0.5057,0,-0.5629,-0.5584,-0.5504,-0.5452,-0.5432,-0.5394,-0.5341,-0.5301,-0.5255,-0.5238,-0.5202,-0.5188,-0.5134,-0.5153,-0.5077,-0.5107,-0.5079,-0.506,-0.5057,-0.5049,-0.5071,-0.5031,-0.4961,-0.4952,-0.5043,-0.5044,-0.5045,0,-0.5602,-0.5522,-0.5463,-0.544,-0.5378,-0.535,-0.5323,-0.5279,-0.5247,-0.5201,-0.518,-0.5129,-0.51,-0.506,-0.5032,-0.5048,-0.4959,-0.4975,-0.4943,-0.4943,-0.4924,-0.4926,-0.4848,-0.4908,-0.4908,-0.4908,-0.4908,0,-0.5542,-0.5494,-0.545,-0.5414,-0.5358,-0.533,-0.5276,-0.5248,-0.5208,-0.5165,-0.515,-0.511,-0.5076,-0.5031,-0.5009,-0.4949,-0.4936,-0.4921,-0.4915,-0.4922,-0.4923,-0.4903,-0.4906,-0.4906,-0.4906,-0.4907,-0.4907,0,-0.5503,-0.5472,-0.5406,-0.5353,-0.5338,-0.5299,-0.5253,-0.5217,-0.5191,-0.5136,-0.5122,-0.5081,-0.5027,-0.4995,-0.4927,-0.4912,-0.4845,-0.4842,-0.4861,-0.4858,-0.4827,-0.483,-0.4733,-0.4718,-0.4789,-0.4788,-0.4788,0,-0.5467,-0.5429,-0.5371,-0.5341,-0.5314,-0.5266,-0.5234,-0.5205,-0.5172,-0.5115,-0.5085,-0.5031,-0.4985,-0.49,-0.4863,-0.481,-0.4805,-0.4775,-0.4797,-0.4804,-0.4803,-0.4805,-0.4801,-0.4771,-0.477,-0.477,-0.4769,0,-0.5406,-0.5392,-0.5346,-0.5294,-0.5256,-0.5214,-0.5172,-0.5148,-0.5112,-0.5075,-0.502,-0.4984,-0.4914,-0.486,-0.4804,-0.4775,-0.4765,-0.4762,-0.4752,-0.4758,-0.477,-0.4761,-0.485,-0.4765,-0.4765,-0.4765,-0.4766,-0.4766,-0.5366,-0.5331,-0.5284,-0.5233,-0.5199,-0.5159,-0.5122,-0.5091,-0.5044,-0.4985,-0.4971,-0.4912,-0.4865,-0.4789,-0.4759,-0.4712,-0.4717,-0.4702,-0.4698,-0.4694,-0.4693,-0.4778,-0.4702,-0.4702,-0.4702,-0.4702,-0.4702,0,-0.5303,-0.5272,-0.5226,-0.5167,-0.5126,-0.5121,-0.5074,-0.504,-0.4989,-0.4946,-0.4901,-0.4837,-0.4784,-0.4742,-0.4687,-0.4657,-0.4651,-0.4644,-0.4645,-0.4638,-0.4692,-0.4707,-0.4649,-0.4649,-0.4649,-0.4649,-0.4649,-0.4649,-0.5266,-0.5206,-0.5186,-0.5108,-0.5077,-0.502,-0.4993,-0.4956,-0.4922,-0.485,-0.4806,-0.4779,-0.4736,-0.4678,-0.4628,-0.4617,-0.4597,-0.459,-0.4578,-0.4629,-0.4635,-0.464,-0.4653,-0.4586,-0.4586,-0.4528,-0.4527,-0.4527]}]]